Cloud_Cover
99 91 48 78 61 72 75 94 100 100 100 63 14 95 100 56 99 78 100 100 100 100 100 100 100 100 100
93 83 98 96 80 58 90 98 100 46 86 91 68 5 5 55 90 100 100 100 100 100 100 100 100 100 99
79 65 57 85 100 72 99 95 77 14 34 19 5 12 5 100 100 100 100 100 100 100 100 100 100 100 100
100 100 100 100 100 100 100 100 92 48 7 68 85 80 93 100 100 100 100 100 100 100 100 100 100 100 100
100 100 100 100 100 100 100 100 94 100 99 72 94 68 100 99 100 100 100 100 100 100 100 100 100 100 100
100 100 100 100 100 100 100 100 100 100 100 100 100 100 100 100 100 100 100 100 100 100 100 100 100 100 100
96 100 100 100 100 100 100 100 100 100 100 100 100 100 100 100 100 100 100 100 100 100 100 100 100 100 100
94 100 100 100 100 100 100 100 100 100 100 100 100 100 100 100 100 100 100 100 100 100 100 100 100 100 92
100 100 100 100 100 100 100 100 100 100 100 100 100 100 100 100 100 100 100 100 100 100 100 100 100 99 15
100 100 100 100 100 100 100 100 100 100 100 100 100 100 100 100 100 100 100 100 100 100 100 100 100 97 88
100 100 100 100 100 100 100 100 100 100 100 100 100 100 100 100 100 100 100 100 100 100 100 100 100 100 97
100 100 100 100 100 100 100 100 100 100 100 100 100 100 100 100 100 100 100 100 100 100 100 100 100 64 94
100 100 100 86 100 100 100 100 100 100 100 100 100 100 100 100 100 100 100 100 100 100 100 100 100 100 95
100 100 97 100 100 100 100 100 100 100 100 100 100 100 100 100 100 100 95 100 100 100 100 97 100 94 94
100 100 100 100 100 100 100 100 100 100 100 100 100 100 100 100 100 99 95 100 100 100 98 97 93 100 100
99 100 100 100 100 100 100 100 100 100 100 100 100 100 100 100 100 100 100 100 100 100 98 100 100 100 100
100 100 100 100 100 100 100 100 100 100 100 88 99 100 100 99 100 100 100 100 100 100 100 100 100 100 100